Regional Weather Roundup
Issued by NWS

Home | Current Version | Previous Version | Text Only | Print | Product List | Glossary On
Versions: 1 2 3 4 5 6 7 8 9 10 11 12 13 14 15 16 17 18 19 20 21 22 23 24 25 26 27 28 29 30 31 32 33 34 35 36 37 38 39 40 41 42 43 44 45 46 47 48 49 50
682
ASUS44 KLIX 010001
RWRLA
LOUISIANA WEATHER ROUNDUP
NATIONAL WEATHER SERVICE NEW ORLEANS LA
600 PM CST SAT FEB 28 2015

NOTE: "FAIR" INDICATES FEW OR NO CLOUDS BELOW 12,000 FEET WITH NO
      SIGNIFICANT WEATHER AND/OR OBSTRUCTIONS TO VISIBILITY.
      SKY/WX - SKY CONDITION AND SIGNIFICANT WEATHER.
      TMP - AIR TEMPERATURE.    DP   - DEWPOINT TEMPERATURE.
      RH  - RELATIVE HUMIDITY.  PRES - PRESSURE.
      HX  - HEAT INDEX.         WCI  - WIND CHILL INDEX.

*  THESE STATIONS ARE NOT NWS OR FAA STATIONS AND ARE NOT UNDER
   NWS QUALITY CONTROL.

LAZ040-048-061>063-065-066-069-010100-
SOUTHEAST LOUISIANA

CITY           SKY/WX    TMP DP  RH WIND       PRES   REMARKS
N.O. AUDUBON     N/A     58  52  81 MISG        N/A
6HR MIN TEMP:  58; 6HR MAX TEMP:  64;

N.O. INTL ARPT MOCLDY    57  47  69 E10       30.32R
6HR MIN TEMP:  57; 6HR MAX TEMP:  62;

N.O. LAKEFRONT CLOUDY    58  47  66 SE12      30.33S
6HR MIN TEMP:  57; 6HR MAX TEMP:  61;

SLIDELL        CLOUDY    59  50  72 E5        30.32S
6HR MIN TEMP:  59; 6HR MAX TEMP:  66;

BATON ROUGE    CLEAR     60  42  51 E8        30.29S
6HR MIN TEMP:  60; 6HR MAX TEMP:  67;

BOOTHVILLE     CLOUDY    55  54  94 NE9       30.32R FOG
6HR MIN TEMP:  55; 6HR MAX TEMP:  57;

BELLE CHASSE   MOCLDY    58  48  69 E12       30.32R
6HR MIN TEMP:  58; 6HR MAX TEMP:  63;

BOGALUSA*      NOT AVBL
GALLIANO*      CLOUDY    58  52  79 NE7       30.31S
6HR MIN TEMP:  58; 6HR MAX TEMP:  63;

NEW ROADS*     NOT AVBL
GONZALES*      NOT AVBL
HAMMOND*       NOT AVBL
HOUMA*         CLEAR     57  52  82 E12       30.30R
PORT FOURCHON* CLOUDY    57  54  88 NE16G23   30.32F

$$

LAZ041-044-053-054-010100-
SOUTHWEST LOUISIANA

CITY           SKY/WX    TMP DP  RH WIND       PRES   REMARKS
LAKE CHARLES   CLOUDY    59  46  62 NE7       30.25S
6HR MIN TEMP:  55; 6HR MAX TEMP:  63;

LAFAYETTE      CLOUDY    65  43  44 CALM      30.27R
6HR MIN TEMP:  59; 6HR MAX TEMP:  67;

PATTERSON      MOCLDY    63  48  59 E10       30.28S
6HR MIN TEMP:  57; 6HR MAX TEMP:  66;

SALT POINT       N/A     63  53  70 SE8       30.25S
6HR MIN TEMP:  60; 6HR MAX TEMP:  66;

NEW IBERIA     CLOUDY    65  44  46 E7        30.28R
6HR MIN TEMP:  60; 6HR MAX TEMP:  68;

CHENAULT AIRPK NOT AVBL

$$

LAZ027-028-010100-
CENTRAL LOUISIANA

CITY           SKY/WX    TMP DP  RH WIND       PRES   REMARKS
FORT POLK      CLOUDY    55  42  59 E6        30.26F
6HR MIN TEMP:  51; 6HR MAX TEMP:  58;

ALEXANDRIA INT CLOUDY    55  36  48 N3        30.29S
6HR MIN TEMP:  50; 6HR MAX TEMP:  59;

ALEXANDRIA     CLOUDY    55  40  56 CALM      30.30S
6HR MIN TEMP:  53; 6HR MAX TEMP:  60;


$$

LAZ001-002-010100-
NORTHWEST LOUISIANA

CITY           SKY/WX    TMP DP  RH WIND       PRES   REMARKS
SHREVEPORT     CLOUDY    48  33  56 E6        30.27F
6HR MIN TEMP:  40; 6HR MAX TEMP:  48;

BARKSDALE AFB  CLOUDY    47  33  57 E6        30.27F
6HR MIN TEMP:  40; 6HR MAX TEMP:  48;

DTN SHREVEPORT CLOUDY    47  30  51 CALM      30.29F
6HR MIN TEMP:  39; 6HR MAX TEMP:  48;


$$

LAZ014-016-010100-
NORTHEAST LOUISIANA

CITY           SKY/WX    TMP DP  RH WIND       PRES   REMARKS
MONROE         CLOUDY    48  37  65 NE3       30.34S
6HR MIN TEMP:  44; 6HR MAX TEMP:  50;

TALLULAH       CLOUDY    50  38  63 N9        30.32F
6HR MIN TEMP:  50; 6HR MAX TEMP:  60;


$$




USA.gov is the U.S. government's official web portal to all federal, state and local government web resources and services.